STARLINK-34164, 64177

Orbit data source: Space-Track

STARLINK-34164, 64177 is a payload satellite owned by SpaceX/Seattle (US) in LEO that was launched on Wed, 28 May 2025 UTC via an FALCON 9 launch vehicle from the Air Force Eastern Test Range (AFETR). Payload-class satellites include a variety of spacecraft equipped with specific instruments for various scientific and technological missions. These include communications satellites like Starlink; space stations such as the ISS; scientific satellites like the Hubble; Earth observation satellites from companies like Planet Labs, Umbra, and HawkEye 360; GPS; miniature CubeSats for education and research; and military/defense satellites.

Loading next visibility...
Identifier
64177, 2025-113H
Orbit
LEO
Country
Flag of USUS
Related business
Manufacturer
SpaceX/Seattle
Mission
Operational Commercial Communications
Bus & Motor
STARLINK V2MO, Unknown motor
Mass
575 kg wet, ~530 kg dry
Launch date (UTC)
2025-05-28 (1 year ago)
Launch vehicle
FALCON 9
Launch site
Air Force Eastern Test Range (AFETR)
Object type
Payload
Rocket body
Debris
Shape & HBR
Box + 2 Pan, 17.7 m
Radar Cross Section
36.964 m², Large (>1 m²)

Expand to show TLE details & history
Last TLE update: 1 day ago

TLE from 1 day ago
0 STARLINK-34164
1 64177U 25113H   26170.85160938  .00015460  00000-0  53287-3 0  9997
2 64177  53.1626 336.8112 0001302  88.3175 271.7975 15.30209194 60707
Epoch: 2026-06-19T20:26Z
TLE epoch observation values (Epoch: 2026-06-19T20:26:19.050Z)
Latitude
-0.00001°
Longitude
122.15716°
Altitude
476.06 km
Speed
7.629 km/s
True Right ascension
22h 27m 14s
True Declination
0° 00' 00"
Sunlit
Object was in daylight at epoch
Visualization orbit readout
Latitude
Unknown
Longitude
Unknown
Altitude
Unknown
Speed
Unknown
Apparent Right ascension
Unknown
Apparent Declination
Unknown
Sunlit
N/A
Visualization observer readout
Local Sidereal Time
07:15:23
Azimuth
Unknown
Elevation
Unknown
Doppler factor
Unknown
Orbital elements
Apogee altitude
476.336 km
Perigee altitude
474.551 km
Semi-major axis
6,853.581 km
Eccentricity
0.00013
Inclination
53.1626°
RAAN
336.8112°
Arg. of periapsis
88.3175°
True anomaly
271.78259°
Mean anomaly
271.7975°
Eccentric anomaly
271.79004°
Mean motion
3.82531 °/min
Orbital period
94.11 mins
BSTAR
0.00053287
Loading maneuver chart data...
Computing Atmospheric mass density...
Loading historical data...
Loading historical data...
Loading historical data...
Loading historical data...
Loading historical data...
Loading historical data...
Loading historical data...

Documentation

Showing up to 5 results
|